User: anonymous   Login
Location: Newark
(35.2161°N, 26.1013°E)
Time: 14:39:29
(UTC+00:00)
Language:

PicSat - Orbit

View from above orbital plane
View from above orbital plane
View from above satellite
View from above satellite

Ground track
Ground track

The orbit data is extracted from the following two-line orbital elements,

1 43131U 18004W   20020.70288827 +.00001410 +00000-0 +59808-4 0  9991
2 43131 097.4665 093.3180 0008558 205.5810 154.5005 15.24764305112429
Epoch (UTC): 20 January 2020 16:52:09
Eccentricity: 0.0008558
inclination: 97.4665°
perigee height: 485 km
apogee height: 497 km
right ascension of ascending node: 93.3180°
argument of perigee: 205.5810°
revolutions per day: 15.24764305
mean anomaly at epoch: 154.5005°
orbit number at epoch: 11242

The dashed part of the orbit path shows where the satellite is in the earth's shadow,  

DLR